Time,TemperatureF,DewpointF,PressureIn,WindDirection,WindDirectionDegrees,WindSpeedMPH,WindSpeedGustMPH,Humidity,HourlyPrecipIn,Conditions,Clouds,dailyrainin,SolarRadiationWatts/m^2,SoftwareType,DateUTC
2013-04-06 00:00:00,58.1,41.6,29.64,South,169,18.0,40.0,54,0.00,,---,0.00,0.00,VWS V14.01,2013-04-06 05:00:00,
2013-04-06 00:02:00,58.1,41.6,29.64,SSW,200,29.0,31.0,54,0.00,,---,0.00,0.00,VWS V14.01,2013-04-06 05:02:00,
2013-04-06 00:07:00,57.8,41.8,29.64,South,172,13.0,33.0,55,0.00,,---,0.00,0.00,VWS V14.01,2013-04-06 05:07:00,
2013-04-06 00:12:00,58.0,41.9,29.64,SSE,159,18.0,33.0,55,0.00,,---,0.00,0.00,VWS V14.01,2013-04-06 05:12:00,
2013-04-06 00:17:00,58.0,41.9,29.65,SSE,167,30.0,34.0,55,0.00,,---,0.00,0.00,VWS V14.01,2013-04-06 05:17:00,
2013-04-06 00:22:00,58.0,41.9,29.65,South,178,8.0,36.0,55,0.00,,---,0.00,0.00,VWS V14.01,2013-04-06 05:22:00,
2013-04-06 00:27:00,58.0,42.4,29.64,South,187,24.0,36.0,56,0.00,,---,0.00,0.00,VWS V14.01,2013-04-06 05:27:00,
2013-04-06 00:30:00,58.0,42.4,29.64,South,184,26.0,36.0,56,0.00,,---,0.00,0.00,VWS V14.01,2013-04-06 05:30:00,
2013-04-06 00:32:00,58.0,42.4,29.64,SSW,195,17.0,32.0,56,0.00,,---,0.00,0.00,VWS V14.01,2013-04-06 05:32:00,
2013-04-06 00:37:00,58.1,42.5,29.64,South,175,25.0,36.0,56,0.00,,---,0.00,0.00,VWS V14.01,2013-04-06 05:37:00,
2013-04-06 00:42:00,58.1,42.5,29.64,SSE,157,20.0,37.0,56,0.00,,---,0.00,0.00,VWS V14.01,2013-04-06 05:42:00,
2013-04-06 00:47:00,58.1,42.5,29.63,South,188,31.0,37.0,56,0.00,,---,0.00,0.00,VWS V14.01,2013-04-06 05:47:00,
2013-04-06 00:52:00,58.1,42.5,29.64,SSE,159,20.0,37.0,56,0.00,,---,0.00,0.00,VWS V14.01,2013-04-06 05:52:00,
2013-04-06 00:57:00,58.3,42.7,29.64,SSE,162,19.0,40.0,56,0.00,,---,0.00,0.00,VWS V14.01,2013-04-06 05:57:00,
2013-04-06 01:00:00,58.3,42.7,29.63,South,186,17.0,40.0,56,0.00,,---,0.00,0.00,VWS V14.01,2013-04-06 06:00:00,
2013-04-06 01:02:00,58.3,42.7,29.63,South,181,8.0,30.0,56,0.00,,---,0.00,0.00,VWS V14.01,2013-04-06 06:02:00,
2013-04-06 01:07:00,58.1,42.5,29.62,South,178,20.0,40.0,56,0.00,,---,0.00,0.00,VWS V14.01,2013-04-06 06:07:00,
2013-04-06 01:12:00,58.1,43.0,29.63,SSE,168,17.0,40.0,57,0.00,,---,0.00,0.00,VWS V14.01,2013-04-06 06:12:00,
2013-04-06 01:17:00,58.0,42.9,29.63,SSW,198,22.0,40.0,57,0.00,,---,0.00,0.00,VWS V14.01,2013-04-06 06:17:00,
2013-04-06 01:22:00,57.8,43.1,29.63,SSE,157,14.0,40.0,58,0.00,,---,0.00,0.00,VWS V14.01,2013-04-06 06:22:00,
2013-04-06 01:27:00,57.6,43.0,29.61,South,184,6.0,40.0,58,0.00,,---,0.00,0.00,VWS V14.01,2013-04-06 06:27:00,
2013-04-06 01:30:00,57.6,43.0,29.62,SSW,192,20.0,40.0,58,0.00,,---,0.00,0.00,VWS V14.01,2013-04-06 06:30:00,
2013-04-06 01:32:00,57.6,43.0,29.62,South,171,13.0,32.0,58,0.00,,---,0.00,0.00,VWS V14.01,2013-04-06 06:32:00,
2013-04-06 01:37:00,57.6,43.0,29.62,South,178,17.0,32.0,58,0.00,,---,0.00,0.00,VWS V14.01,2013-04-06 06:37:00,
2013-04-06 01:42:00,57.6,43.0,29.61,South,173,27.0,35.0,58,0.00,,---,0.00,0.00,VWS V14.01,2013-04-06 06:42:00,
2013-04-06 01:47:00,57.5,43.3,29.61,SSW,195,24.0,35.0,59,0.00,,---,0.00,0.00,VWS V14.01,2013-04-06 06:47:00,
2013-04-06 01:52:00,57.6,43.0,29.61,South,175,11.0,35.0,58,0.00,,---,0.00,0.00,VWS V14.01,2013-04-06 06:52:00,
2013-04-06 01:57:00,57.5,43.3,29.60,WSW,242,19.0,35.0,59,0.00,,---,0.00,0.00,VWS V14.01,2013-04-06 06:57:00,
2013-04-06 02:00:00,57.5,43.3,29.60,South,186,22.0,35.0,59,0.00,,---,0.00,0.00,VWS V14.01,2013-04-06 07:00:00,
2013-04-06 02:02:00,57.5,42.8,29.60,South,172,31.0,37.0,58,0.00,,---,0.00,0.00,VWS V14.01,2013-04-06 07:02:00,
2013-04-06 02:08:00,57.5,43.3,29.60,South,169,15.0,37.0,59,0.00,,---,0.00,0.00,VWS V14.01,2013-04-06 07:08:00,
2013-04-06 02:13:00,57.5,43.3,29.60,SSW,193,27.0,37.0,59,0.00,,---,0.00,0.00,VWS V14.01,2013-04-06 07:13:00,
2013-04-06 02:18:00,57.5,42.8,29.59,SSW,196,26.0,44.0,58,0.00,,---,0.00,0.00,VWS V14.01,2013-04-06 07:18:00,
2013-04-06 02:23:00,57.5,43.3,29.59,SSE,161,21.0,44.0,59,0.00,,---,0.00,0.00,VWS V14.01,2013-04-06 07:23:00,
2013-04-06 02:28:00,57.5,43.3,29.59,SSE,165,22.0,44.0,59,0.00,,---,0.00,0.00,VWS V14.01,2013-04-06 07:28:00,
2013-04-06 02:30:00,57.3,43.1,29.59,SSE,166,20.0,44.0,59,0.00,,---,0.00,0.00,VWS V14.01,2013-04-06 07:30:00,
2013-04-06 02:33:00,57.3,43.1,29.60,South,183,25.0,35.0,59,0.00,,---,0.00,0.00,VWS V14.01,2013-04-06 07:33:00,
2013-04-06 02:38:00,57.3,43.1,29.59,South,178,23.0,35.0,59,0.00,,---,0.00,0.00,VWS V14.01,2013-04-06 07:38:00,
2013-04-06 02:43:00,57.2,43.0,29.59,SSE,165,19.0,35.0,59,0.00,,---,0.00,0.00,VWS V14.01,2013-04-06 07:43:00,
2013-04-06 02:48:00,57.2,43.0,29.59,SSW,194,24.0,39.0,59,0.00,,---,0.00,0.00,VWS V14.01,2013-04-06 07:48:00,
2013-04-06 02:53:00,57.0,43.3,29.58,South,177,21.0,39.0,60,0.00,,---,0.00,0.00,VWS V14.01,2013-04-06 07:53:00,
2013-04-06 02:58:00,57.0,43.3,29.58,WSW,250,6.0,39.0,60,0.00,,---,0.00,0.00,VWS V14.01,2013-04-06 07:58:00,
2013-04-06 03:00:00,57.0,43.3,29.58,SSE,163,18.0,39.0,60,0.00,,---,0.00,0.00,VWS V14.01,2013-04-06 08:00:00,
2013-04-06 03:03:00,56.9,43.2,29.58,SSW,193,24.0,33.0,60,0.00,,---,0.00,0.00,VWS V14.01,2013-04-06 08:03:00,
2013-04-06 03:08:00,56.9,43.2,29.58,SSW,199,9.0,33.0,60,0.00,,---,0.00,0.00,VWS V14.01,2013-04-06 08:08:00,
2013-04-06 03:13:00,56.7,43.4,29.58,South,181,16.0,35.0,61,0.00,,---,0.00,0.00,VWS V14.01,2013-04-06 08:13:00,
2013-04-06 03:18:00,56.6,43.3,29.58,SW,234,20.0,35.0,61,0.00,,---,0.00,0.00,VWS V14.01,2013-04-06 08:18:00,
2013-04-06 03:23:00,56.6,43.3,29.58,South,186,18.0,36.0,61,0.00,,---,0.00,0.00,VWS V14.01,2013-04-06 08:23:00,
2013-04-06 03:28:00,56.5,43.7,29.58,WSW,241,10.0,36.0,62,0.00,,---,0.00,0.00,VWS V14.01,2013-04-06 08:28:00,
2013-04-06 03:30:00,56.5,43.7,29.58,South,188,12.0,36.0,62,0.00,,---,0.00,0.00,VWS V14.01,2013-04-06 08:30:00,
2013-04-06 03:33:00,56.3,43.5,29.58,SSW,204,15.0,24.0,62,0.00,,---,0.00,0.00,VWS V14.01,2013-04-06 08:33:00,
2013-04-06 03:38:00,56.3,43.5,29.59,South,182,11.0,25.0,62,0.00,,---,0.00,0.00,VWS V14.01,2013-04-06 08:38:00,
2013-04-06 03:43:00,56.2,43.8,29.59,SSW,194,23.0,25.0,63,0.00,,---,0.00,0.00,VWS V14.01,2013-04-06 08:43:00,
2013-04-06 03:48:00,56.0,43.6,29.59,South,183,19.0,28.0,63,0.00,,---,0.00,0.00,VWS V14.01,2013-04-06 08:48:00,
2013-04-06 03:53:00,55.9,43.5,29.59,SSE,167,25.0,28.0,63,0.00,,---,0.00,0.00,VWS V14.01,2013-04-06 08:53:00,
2013-04-06 03:58:00,55.9,43.5,29.59,SSW,201,15.0,28.0,63,0.00,,---,0.00,0.00,VWS V14.01,2013-04-06 08:58:00,
2013-04-06 04:00:00,55.9,43.5,29.59,SSW,212,20.0,28.0,63,0.00,,---,0.00,0.00,VWS V14.01,2013-04-06 09:00:00,
2013-04-06 04:03:00,56.0,43.6,29.59,SSW,198,16.0,21.0,63,0.00,,---,0.00,0.00,VWS V14.01,2013-04-06 09:03:00,
2013-04-06 04:08:00,56.0,43.6,29.59,South,171,7.0,24.0,63,0.00,,---,0.00,0.00,VWS V14.01,2013-04-06 09:08:00,
2013-04-06 04:13:00,56.2,43.8,29.60,South,180,23.0,24.0,63,0.00,,---,0.00,0.00,VWS V14.01,2013-04-06 09:13:00,
2013-04-06 04:18:00,56.3,43.9,29.61,South,178,15.0,24.0,63,0.00,,---,0.00,0.00,VWS V14.01,2013-04-06 09:18:00,
2013-04-06 04:23:00,56.3,43.9,29.61,SW,214,17.0,24.0,63,0.00,,---,0.00,0.00,VWS V14.01,2013-04-06 09:23:00,
2013-04-06 04:28:00,56.3,43.9,29.60,South,183,12.0,24.0,63,0.00,,---,0.00,0.00,VWS V14.01,2013-04-06 09:28:00,
2013-04-06 04:30:00,56.2,43.8,29.60,South,171,9.0,24.0,63,0.00,,---,0.00,0.00,VWS V14.01,2013-04-06 09:30:00,
2013-04-06 04:33:00,56.2,43.8,29.61,South,190,15.0,21.0,63,0.00,,---,0.00,0.00,VWS V14.01,2013-04-06 09:33:00,
2013-04-06 04:38:00,56.2,43.8,29.61,South,180,16.0,23.0,63,0.00,,---,0.00,0.00,VWS V14.01,2013-04-06 09:38:00,
2013-04-06 04:43:00,56.2,44.2,29.60,SSE,160,12.0,23.0,64,0.00,,---,0.00,0.00,VWS V14.01,2013-04-06 09:43:00,
2013-04-06 04:48:00,56.0,44.0,29.60,SSW,210,14.0,23.0,64,0.00,,---,0.00,0.00,VWS V14.01,2013-04-06 09:48:00,
2013-04-06 04:53:00,56.0,44.0,29.60,SSW,197,11.0,23.0,64,0.00,,---,0.00,0.00,VWS V14.01,2013-04-06 09:53:00,
2013-04-06 04:59:00,55.7,44.1,29.60,SSW,198,12.0,23.0,65,0.00,,---,0.00,0.00,VWS V14.01,2013-04-06 09:59:00,
2013-04-06 05:00:00,55.7,44.1,29.60,SSE,156,11.0,23.0,65,0.00,,---,0.00,0.00,VWS V14.01,2013-04-06 10:00:00,
2013-04-06 05:04:00,55.6,44.0,29.60,SSW,204,13.0,14.0,65,0.00,,---,0.00,0.00,VWS V14.01,2013-04-06 10:04:00,
2013-04-06 05:09:00,55.6,44.0,29.60,SSW,198,11.0,18.0,65,0.00,,---,0.00,0.00,VWS V14.01,2013-04-06 10:09:00,
2013-04-06 05:14:00,55.4,43.8,29.60,SSW,202,17.0,20.0,65,0.00,,---,0.00,0.00,VWS V14.01,2013-04-06 10:14:00,
2013-04-06 05:19:00,55.4,43.8,29.60,SSW,211,8.0,20.0,65,0.00,,---,0.00,0.00,VWS V14.01,2013-04-06 10:19:00,
2013-04-06 05:24:00,55.3,44.2,29.60,SSE,156,8.0,20.0,66,0.00,,---,0.00,0.00,VWS V14.01,2013-04-06 10:24:00,
2013-04-06 05:29:00,55.3,44.2,29.60,SSE,153,8.0,20.0,66,0.00,,---,0.00,0.00,VWS V14.01,2013-04-06 10:29:00,
2013-04-06 05:30:00,55.3,44.2,29.60,South,178,8.0,20.0,66,0.00,,---,0.00,0.00,VWS V14.01,2013-04-06 10:30:00,
2013-04-06 05:34:00,55.1,44.0,29.60,South,176,4.0,13.0,66,0.00,,---,0.00,0.00,VWS V14.01,2013-04-06 10:34:00,
2013-04-06 05:39:00,55.0,44.3,29.60,South,180,6.0,13.0,67,0.00,,---,0.00,0.00,VWS V14.01,2013-04-06 10:39:00,
2013-04-06 05:44:00,55.0,44.3,29.60,SE,124,8.0,13.0,67,0.00,,---,0.00,0.00,VWS V14.01,2013-04-06 10:44:00,
2013-04-06 05:50:00,55.0,44.3,29.60,SSW,204,14.0,15.0,67,0.00,,---,0.00,0.00,VWS V14.01,2013-04-06 10:50:00,
2013-04-06 05:55:00,55.0,44.3,29.59,South,184,17.0,20.0,67,0.00,,---,0.00,0.00,VWS V14.01,2013-04-06 10:55:00,
2013-04-06 06:00:00,55.1,44.3,29.59,South,186,14.0,23.0,67,0.00,,---,0.00,0.00,VWS V14.01,2013-04-06 11:00:00,
2013-04-06 06:05:00,55.0,44.3,29.59,SW,224,5.0,16.0,67,0.00,,---,0.00,0.00,VWS V14.01,2013-04-06 11:05:00,
2013-04-06 06:10:00,54.8,44.1,29.59,South,173,11.0,17.0,67,0.00,,---,0.00,0.00,VWS V14.01,2013-04-06 11:10:00,
2013-04-06 06:15:00,54.8,44.5,29.59,South,189,11.0,17.0,68,0.00,,---,0.00,0.00,VWS V14.01,2013-04-06 11:15:00,
2013-04-06 06:20:00,54.7,44.4,29.59,SSW,196,9.0,18.0,68,0.00,,---,0.00,0.00,VWS V14.01,2013-04-06 11:20:00,
2013-04-06 06:25:00,54.7,44.4,29.59,South,177,18.0,19.0,68,0.00,,---,0.00,0.00,VWS V14.01,2013-04-06 11:25:00,
2013-04-06 06:30:00,54.5,44.5,29.58,SSW,194,7.0,7.0,69,0.00,,---,0.00,0.00,VWS V14.01,2013-04-06 11:30:00,
2013-04-06 06:33:00,54.5,44.5,29.58,South,182,12.0,13.0,69,0.00,,---,0.00,0.00,VWS V14.01,2013-04-06 11:33:00,
2013-04-06 06:38:00,54.4,44.5,29.58,South,184,9.0,19.0,69,0.00,,---,0.00,0.00,VWS V14.01,2013-04-06 11:38:00,
2013-04-06 06:43:00,54.4,44.5,29.58,SSW,196,10.0,19.0,69,0.00,,---,0.00,0.00,VWS V14.01,2013-04-06 11:43:00,
2013-04-06 06:48:00,54.4,44.5,29.58,SSW,211,8.0,19.0,69,0.00,,---,0.00,0.00,VWS V14.01,2013-04-06 11:48:00,
2013-04-06 06:53:00,54.4,44.5,29.58,South,169,9.0,19.0,69,0.00,,---,0.00,0.00,VWS V14.01,2013-04-06 11:53:00,
2013-04-06 06:58:00,54.4,44.5,29.58,SSW,194,14.0,19.0,69,0.00,,---,0.00,0.00,VWS V14.01,2013-04-06 11:58:00,
2013-04-06 07:00:00,54.4,44.5,29.58,South,189,10.0,19.0,69,0.00,,---,0.00,0.00,VWS V14.01,2013-04-06 12:00:00,
2013-04-06 07:03:00,54.5,44.5,29.59,SSW,193,12.0,16.0,69,0.00,,---,0.00,0.00,VWS V14.01,2013-04-06 12:03:00,
2013-04-06 07:08:00,54.7,44.7,29.59,SSW,203,12.0,19.0,69,0.00,,---,0.00,0.00,VWS V14.01,2013-04-06 12:08:00,
2013-04-06 07:13:00,54.8,44.8,29.59,South,188,11.0,20.0,69,0.00,,---,0.00,0.00,VWS V14.01,2013-04-06 12:13:00,
2013-04-06 07:18:00,54.8,44.8,29.59,SSW,199,8.0,20.0,69,0.00,,---,0.00,0.00,VWS V14.01,2013-04-06 12:18:00,
2013-04-06 07:23:00,54.8,44.8,29.59,South,180,9.0,20.0,69,0.00,,---,0.00,7.00,VWS V14.01,2013-04-06 12:23:00,
2013-04-06 07:28:00,54.8,44.8,29.59,South,173,9.0,20.0,69,0.00,,---,0.00,11.00,VWS V14.01,2013-04-06 12:28:00,
2013-04-06 07:30:00,54.8,44.8,29.59,South,169,15.0,20.0,69,0.00,,---,0.00,12.00,VWS V14.01,2013-04-06 12:30:00,
2013-04-06 07:33:00,55.0,44.7,29.59,SSW,192,6.0,17.0,68,0.00,,---,0.00,12.00,VWS V14.01,2013-04-06 12:33:00,
2013-04-06 07:38:00,55.0,45.0,29.59,SSW,200,2.0,17.0,69,0.00,,---,0.00,18.00,VWS V14.01,2013-04-06 12:38:00,
2013-04-06 07:43:00,54.8,44.8,29.59,South,177,4.0,17.0,69,0.00,,---,0.00,30.00,VWS V14.01,2013-04-06 12:43:00,
2013-04-06 07:48:00,55.0,45.0,29.59,SSW,201,12.0,17.0,69,0.00,,---,0.00,30.00,VWS V14.01,2013-04-06 12:48:00,
2013-04-06 07:53:00,55.0,44.7,29.59,SSW,192,10.0,17.0,68,0.00,,---,0.00,35.00,VWS V14.01,2013-04-06 12:53:00,
2013-04-06 07:59:00,55.3,44.9,29.60,SW,229,9.0,17.0,68,0.00,,---,0.00,28.00,VWS V14.01,2013-04-06 12:59:00,
2013-04-06 08:00:00,55.3,44.9,29.59,SW,223,11.0,18.0,68,0.00,,---,0.00,28.00,VWS V14.01,2013-04-06 13:00:00,
2013-04-06 08:04:00,55.4,44.6,29.60,SSW,201,11.0,17.0,67,0.00,,---,0.00,28.00,VWS V14.01,2013-04-06 13:04:00,
2013-04-06 08:09:00,55.4,44.6,29.59,SSW,197,16.0,21.0,67,0.00,,---,0.00,28.00,VWS V14.01,2013-04-06 13:09:00,
2013-04-06 08:14:00,55.4,45.0,29.60,SW,224,16.0,21.0,68,0.00,,---,0.00,37.00,VWS V14.01,2013-04-06 13:14:00,
2013-04-06 08:19:00,55.3,44.9,29.60,SW,227,15.0,21.0,68,0.00,,---,0.00,47.00,VWS V14.01,2013-04-06 13:19:00,
2013-04-06 08:24:00,55.4,45.0,29.60,SSW,203,15.0,21.0,68,0.00,,---,0.00,109.00,VWS V14.01,2013-04-06 13:24:00,
2013-04-06 08:29:00,55.6,45.2,29.60,SSE,162,5.0,21.0,68,0.00,,---,0.00,195.00,VWS V14.01,2013-04-06 13:29:00,
2013-04-06 08:30:00,55.6,45.2,29.60,WSW,239,8.0,21.0,68,0.00,,---,0.00,137.00,VWS V14.01,2013-04-06 13:30:00,
2013-04-06 08:34:00,55.7,44.9,29.61,WSW,242,13.0,15.0,67,0.00,,---,0.00,120.00,VWS V14.01,2013-04-06 13:34:00,
2013-04-06 08:39:00,55.9,45.1,29.61,SW,232,11.0,17.0,67,0.00,,---,0.00,246.00,VWS V14.01,2013-04-06 13:39:00,
2013-04-06 08:44:00,56.3,45.1,29.61,SW,235,6.0,19.0,66,0.00,,---,0.00,272.00,VWS V14.01,2013-04-06 13:44:00,
2013-04-06 08:49:00,56.7,45.1,29.62,WSW,238,16.0,22.0,65,0.00,,---,0.00,313.00,VWS V14.01,2013-04-06 13:49:00,
2013-04-06 08:54:00,57.5,45.4,29.61,SW,220,12.0,22.0,64,0.00,,---,0.00,355.00,VWS V14.01,2013-04-06 13:54:00,
2013-04-06 08:59:00,58.3,44.9,29.61,WSW,240,15.0,22.0,61,0.00,,---,0.00,236.00,VWS V14.01,2013-04-06 13:59:00,
2013-04-06 09:00:00,58.3,44.9,29.61,SW,233,12.0,22.0,61,0.00,,---,0.00,230.00,VWS V14.01,2013-04-06 14:00:00,
2013-04-06 09:04:00,58.7,44.9,29.62,West,271,6.0,17.0,60,0.00,,---,0.00,160.00,VWS V14.01,2013-04-06 14:04:00,
2013-04-06 09:09:00,59.0,44.7,29.62,West,266,4.0,17.0,59,0.00,,---,0.00,214.00,VWS V14.01,2013-04-06 14:09:00,
2013-04-06 09:14:00,59.3,44.5,29.61,WSW,258,8.0,17.0,58,0.00,,---,0.00,246.00,VWS V14.01,2013-04-06 14:14:00,
2013-04-06 09:19:00,59.6,44.8,29.62,WSW,238,9.0,17.0,58,0.00,,---,0.00,295.00,VWS V14.01,2013-04-06 14:19:00,
2013-04-06 09:24:00,60.1,44.8,29.62,WNW,286,4.0,17.0,57,0.00,,---,0.00,299.00,VWS V14.01,2013-04-06 14:24:00,
2013-04-06 09:29:00,60.5,44.3,29.62,West,278,18.0,18.0,55,0.00,,---,0.00,322.00,VWS V14.01,2013-04-06 14:29:00,
2013-04-06 09:30:00,60.5,44.3,29.62,West,279,14.0,18.0,55,0.00,,---,0.00,322.00,VWS V14.01,2013-04-06 14:30:00,
2013-04-06 09:34:00,60.4,43.7,29.62,WNW,288,8.0,15.0,54,0.00,,---,0.00,388.00,VWS V14.01,2013-04-06 14:34:00,
2013-04-06 09:39:00,60.7,44.0,29.62,WNW,300,6.0,15.0,54,0.00,,---,0.00,424.00,VWS V14.01,2013-04-06 14:39:00,
2013-04-06 09:45:00,60.9,43.7,29.62,WNW,298,11.0,16.0,53,0.00,,---,0.00,439.00,VWS V14.01,2013-04-06 14:45:00,
2013-04-06 09:50:00,60.9,43.2,29.62,West,279,16.0,23.0,52,0.00,,---,0.00,450.00,VWS V14.01,2013-04-06 14:50:00,
2013-04-06 09:55:00,61.2,43.5,29.62,NW,315,12.0,23.0,52,0.00,,---,0.00,466.00,VWS V14.01,2013-04-06 14:55:00,
2013-04-06 10:00:00,61.6,43.3,29.62,WNW,299,15.0,23.0,51,0.00,,---,0.00,411.00,VWS V14.01,2013-04-06 15:00:00,
2013-04-06 10:05:00,62.3,42.9,29.63,WNW,284,13.0,20.0,49,0.00,,---,0.00,494.00,VWS V14.01,2013-04-06 15:05:00,
2013-04-06 10:10:00,62.7,42.8,29.63,NW,321,13.0,23.0,48,0.00,,---,0.00,510.00,VWS V14.01,2013-04-06 15:10:00,
2013-04-06 10:15:00,62.7,42.8,29.63,West,275,8.0,23.0,48,0.00,,---,0.00,531.00,VWS V14.01,2013-04-06 15:15:00,
2013-04-06 10:20:00,63.4,42.8,29.63,NW,318,13.0,23.0,47,0.00,,---,0.00,561.00,VWS V14.01,2013-04-06 15:20:00,
2013-04-06 10:25:00,63.9,41.6,29.63,NW,305,7.0,23.0,44,0.00,,---,0.00,343.00,VWS V14.01,2013-04-06 15:25:00,
2013-04-06 10:30:00,64.2,40.7,29.64,WNW,299,16.0,17.0,42,0.00,,---,0.00,568.00,VWS V14.01,2013-04-06 15:30:00,
2013-04-06 10:35:00,64.5,40.3,29.63,WNW,298,20.0,28.0,41,0.00,,---,0.00,578.00,VWS V14.01,2013-04-06 15:35:00,
2013-04-06 10:40:00,64.5,39.7,29.63,NW,311,13.0,28.0,40,0.00,,---,0.00,589.00,VWS V14.01,2013-04-06 15:40:00,
2013-04-06 10:45:00,64.8,39.3,29.64,NNW,333,21.0,28.0,39,0.00,,---,0.00,603.00,VWS V14.01,2013-04-06 15:45:00,
2013-04-06 10:50:00,65.0,38.8,29.64,NNW,338,12.0,28.0,38,0.00,,---,0.00,617.00,VWS V14.01,2013-04-06 15:50:00,
2013-04-06 10:55:00,64.7,38.5,29.64,WNW,303,19.0,28.0,38,0.00,,---,0.00,629.00,VWS V14.01,2013-04-06 15:55:00,
2013-04-06 11:00:00,64.8,37.9,29.65,NNW,343,23.0,26.0,37,0.00,,---,0.00,640.00,VWS V14.01,2013-04-06 16:00:00,
2013-04-06 11:05:00,64.7,38.5,29.65,NW,323,12.0,26.0,38,0.00,,---,0.00,654.00,VWS V14.01,2013-04-06 16:05:00,
2013-04-06 11:10:00,64.7,38.5,29.65,North,349,15.0,28.0,38,0.00,,---,0.00,661.00,VWS V14.01,2013-04-06 16:10:00,
2013-04-06 11:15:00,64.7,37.8,29.66,WNW,296,11.0,31.0,37,0.00,,---,0.00,679.00,VWS V14.01,2013-04-06 16:15:00,
2013-04-06 11:20:00,64.8,37.9,29.65,WNW,303,15.0,31.0,37,0.00,,---,0.00,693.00,VWS V14.01,2013-04-06 16:20:00,
2013-04-06 11:25:00,65.2,39.0,29.66,NNW,342,22.0,31.0,38,0.00,,---,0.00,703.00,VWS V14.01,2013-04-06 16:25:00,
2013-04-06 11:30:00,65.3,38.4,29.66,NW,322,22.0,25.0,37,0.00,,---,0.00,715.00,VWS V14.01,2013-04-06 16:30:00,
2013-04-06 11:35:00,65.3,38.4,29.66,NW,324,30.0,30.0,37,0.00,,---,0.00,726.00,VWS V14.01,2013-04-06 16:35:00,
2013-04-06 11:40:00,65.2,39.0,29.66,NNW,334,20.0,30.0,38,0.00,,---,0.00,742.00,VWS V14.01,2013-04-06 16:40:00,
2013-04-06 11:45:00,65.2,39.0,29.67,NW,323,24.0,30.0,38,0.00,,---,0.00,756.00,VWS V14.01,2013-04-06 16:45:00,
2013-04-06 11:50:00,65.6,39.3,29.67,NW,305,17.0,30.0,38,0.00,,---,0.00,761.00,VWS V14.01,2013-04-06 16:50:00,
2013-04-06 11:56:00,65.8,38.8,29.67,WNW,302,13.0,30.0,37,0.00,,---,0.00,770.00,VWS V14.01,2013-04-06 16:56:00,
2013-04-06 12:00:00,65.5,39.2,29.67,NW,306,14.0,30.0,38,0.00,,---,0.00,780.00,VWS V14.01,2013-04-06 17:00:00,
2013-04-06 12:01:00,65.6,39.3,29.67,NNW,338,17.0,21.0,38,0.00,,---,0.00,784.00,VWS V14.01,2013-04-06 17:01:00,
2013-04-06 12:06:00,65.8,39.5,29.67,NNW,336,16.0,22.0,38,0.00,,---,0.00,789.00,VWS V14.01,2013-04-06 17:06:00,
2013-04-06 12:11:00,66.1,39.8,29.67,NNW,342,14.0,23.0,38,0.00,,---,0.00,800.00,VWS V14.01,2013-04-06 17:11:00,
2013-04-06 12:16:00,67.3,39.5,29.67,NNW,337,11.0,23.0,36,0.00,,---,0.00,809.00,VWS V14.01,2013-04-06 17:16:00,
2013-04-06 12:21:00,67.6,40.4,29.67,North,351,11.0,26.0,37,0.00,,---,0.00,817.00,VWS V14.01,2013-04-06 17:21:00,
2013-04-06 12:26:00,67.3,40.8,29.66,NNW,346,17.0,26.0,38,0.00,,---,0.00,823.00,VWS V14.01,2013-04-06 17:26:00,
2013-04-06 12:30:00,67.6,40.4,29.67,NW,317,14.0,26.0,37,0.00,,---,0.00,830.00,VWS V14.01,2013-04-06 17:30:00,
2013-04-06 12:31:00,67.6,39.7,29.67,NW,326,10.0,16.0,36,0.00,,---,0.00,828.00,VWS V14.01,2013-04-06 17:31:00,
2013-04-06 12:37:00,67.6,39.7,29.67,NNW,336,23.0,24.0,36,0.00,,---,0.00,835.00,VWS V14.01,2013-04-06 17:37:00,
2013-04-06 12:42:00,67.9,40.0,29.67,NW,313,13.0,24.0,36,0.00,,---,0.00,840.00,VWS V14.01,2013-04-06 17:42:00,
2013-04-06 12:47:00,68.3,39.6,29.67,West,278,3.0,24.0,35,0.00,,---,0.00,847.00,VWS V14.01,2013-04-06 17:47:00,
2013-04-06 12:52:00,68.9,39.4,29.67,NW,326,6.0,24.0,34,0.00,,---,0.00,854.00,VWS V14.01,2013-04-06 17:52:00,
2013-04-06 12:57:00,68.3,38.1,29.67,NW,321,16.0,24.0,33,0.00,,---,0.00,865.00,VWS V14.01,2013-04-06 17:57:00,
2013-04-06 13:00:00,68.1,40.2,29.67,WNW,286,11.0,24.0,36,0.00,,---,0.00,865.00,VWS V14.01,2013-04-06 18:00:00,
2013-04-06 13:02:00,68.3,39.6,29.67,WNW,287,7.0,17.0,35,0.00,,---,0.00,868.00,VWS V14.01,2013-04-06 18:02:00,
2013-04-06 13:07:00,68.6,38.4,29.66,NW,326,15.0,24.0,33,0.00,,---,0.00,874.00,VWS V14.01,2013-04-06 18:07:00,
2013-04-06 13:12:00,68.8,38.5,29.66,WNW,302,15.0,24.0,33,0.00,,---,0.00,879.00,VWS V14.01,2013-04-06 18:12:00,
2013-04-06 13:17:00,68.6,39.9,29.66,NNW,329,14.0,24.0,35,0.00,,---,0.00,872.00,VWS V14.01,2013-04-06 18:17:00,
2013-04-06 13:22:00,69.3,39.0,29.66,WNW,290,10.0,24.0,33,0.00,,---,0.00,860.00,VWS V14.01,2013-04-06 18:22:00,
2013-04-06 13:28:00,68.9,38.6,29.66,NW,309,12.0,24.0,33,0.00,,---,0.00,868.00,VWS V14.01,2013-04-06 18:28:00,
2013-04-06 13:30:00,69.1,40.3,29.66,NW,315,10.0,24.0,35,0.00,,---,0.00,867.00,VWS V14.01,2013-04-06 18:30:00,
2013-04-06 13:33:00,69.8,39.4,29.65,NW,308,20.0,21.0,33,0.00,,---,0.00,865.00,VWS V14.01,2013-04-06 18:33:00,
2013-04-06 13:38:00,69.6,39.2,29.66,NW,309,16.0,21.0,33,0.00,,---,0.00,874.00,VWS V14.01,2013-04-06 18:38:00,
2013-04-06 13:43:00,70.4,38.3,29.66,NNW,329,13.0,21.0,31,0.00,,---,0.00,868.00,VWS V14.01,2013-04-06 18:43:00,
2013-04-06 13:48:00,70.3,38.3,29.65,NW,322,16.0,21.0,31,0.00,,---,0.00,867.00,VWS V14.01,2013-04-06 18:48:00,
2013-04-06 13:53:00,70.4,37.5,29.65,WNW,295,14.0,23.0,30,0.00,,---,0.00,863.00,VWS V14.01,2013-04-06 18:53:00,
2013-04-06 13:58:00,70.4,39.2,29.65,NW,315,16.0,23.0,32,0.00,,---,0.00,668.00,VWS V14.01,2013-04-06 18:58:00,
2013-04-06 14:00:00,70.6,39.3,29.65,WNW,298,16.0,23.0,32,0.00,,---,0.00,668.00,VWS V14.01,2013-04-06 19:00:00,
2013-04-06 14:03:00,70.6,38.5,29.65,NW,325,4.0,18.0,31,0.00,,---,0.00,63.00,VWS V14.01,2013-04-06 19:03:00,
2013-04-06 14:08:00,70.8,37.9,29.65,NNW,328,15.0,21.0,30,0.00,,---,0.00,44.00,VWS V14.01,2013-04-06 19:08:00,
2013-04-06 14:13:00,70.6,37.7,29.65,NW,313,18.0,21.0,30,0.00,,---,0.00,44.00,VWS V14.01,2013-04-06 19:13:00,
2013-04-06 14:18:00,71.1,36.4,29.65,WNW,295,3.0,22.0,28,0.00,,---,0.00,44.00,VWS V14.01,2013-04-06 19:18:00,
2013-04-06 14:23:00,71.5,36.7,29.65,WNW,291,19.0,22.0,28,0.00,,---,0.00,44.00,VWS V14.01,2013-04-06 19:23:00,
2013-04-06 14:28:00,71.3,36.5,29.64,NW,306,22.0,23.0,28,0.00,,---,0.00,44.00,VWS V14.01,2013-04-06 19:28:00,
2013-04-06 14:30:00,71.3,35.6,29.65,NW,323,18.0,23.0,27,0.00,,---,0.00,44.00,VWS V14.01,2013-04-06 19:30:00,
2013-04-06 14:33:00,71.3,36.5,29.65,WNW,284,10.0,21.0,28,0.00,,---,0.00,44.00,VWS V14.01,2013-04-06 19:33:00,
2013-04-06 14:38:00,72.0,37.1,29.65,NW,309,13.0,27.0,28,0.00,,---,0.00,44.00,VWS V14.01,2013-04-06 19:38:00,
2013-04-06 14:43:00,72.3,37.4,29.65,NNW,331,13.0,27.0,28,0.00,,---,0.00,44.00,VWS V14.01,2013-04-06 19:43:00,
2013-04-06 14:48:00,72.5,37.6,29.65,WNW,288,20.0,27.0,28,0.00,,---,0.00,47.00,VWS V14.01,2013-04-06 19:48:00,
2013-04-06 14:53:00,72.0,36.2,29.65,WNW,302,10.0,27.0,27,0.00,,---,0.00,49.00,VWS V14.01,2013-04-06 19:53:00,
2013-04-06 14:59:00,72.7,37.8,29.65,NW,322,17.0,27.0,28,0.00,,---,0.00,53.00,VWS V14.01,2013-04-06 19:59:00,
2013-04-06 15:00:00,72.7,37.7,29.65,NW,325,15.0,27.0,28,0.00,,---,0.00,54.00,VWS V14.01,2013-04-06 20:00:00,
2013-04-06 15:04:00,72.5,37.6,29.65,NW,309,14.0,21.0,28,0.00,,---,0.00,56.00,VWS V14.01,2013-04-06 20:04:00,
2013-04-06 15:09:00,73.3,38.3,29.65,West,265,13.0,21.0,28,0.00,,---,0.00,62.00,VWS V14.01,2013-04-06 20:09:00,
2013-04-06 15:14:00,73.2,37.2,29.64,WNW,292,14.0,21.0,27,0.00,,---,0.00,65.00,VWS V14.01,2013-04-06 20:14:00,
2013-04-06 15:19:00,73.5,37.5,29.64,NW,319,9.0,21.0,27,0.00,,---,0.00,79.00,VWS V14.01,2013-04-06 20:19:00,
2013-04-06 15:24:00,74.0,36.0,29.64,WNW,291,13.0,21.0,25,0.00,,---,0.00,86.00,VWS V14.01,2013-04-06 20:24:00,
2013-04-06 15:29:00,74.2,36.2,29.64,West,274,10.0,21.0,25,0.00,,---,0.00,104.00,VWS V14.01,2013-04-06 20:29:00,
2013-04-06 15:30:00,74.2,36.2,29.64,West,259,7.0,21.0,25,0.00,,---,0.00,104.00,VWS V14.01,2013-04-06 20:30:00,
2013-04-06 15:34:00,74.2,36.2,29.64,West,275,16.0,18.0,25,0.00,,---,0.00,125.00,VWS V14.01,2013-04-06 20:34:00,
2013-04-06 15:39:00,74.2,36.2,29.64,NW,312,24.0,24.0,25,0.00,,---,0.00,153.00,VWS V14.01,2013-04-06 20:39:00,
2013-04-06 15:44:00,74.0,35.0,29.64,NW,317,16.0,28.0,24,0.00,,---,0.00,148.00,VWS V14.01,2013-04-06 20:44:00,
2013-04-06 15:49:00,73.9,35.9,29.65,West,279,16.0,28.0,25,0.00,,---,0.00,153.00,VWS V14.01,2013-04-06 20:49:00,
2013-04-06 15:55:00,74.0,35.0,29.65,WNW,286,9.0,28.0,24,0.00,,---,0.00,202.00,VWS V14.01,2013-04-06 20:55:00,
2013-04-06 16:00:00,74.0,37.0,29.64,WNW,302,12.0,28.0,26,0.00,,---,0.00,274.00,VWS V14.01,2013-04-06 21:00:00,
2013-04-06 16:05:00,74.0,36.0,29.65,WNW,283,15.0,24.0,25,0.00,,---,0.00,388.00,VWS V14.01,2013-04-06 21:05:00,
2013-04-06 16:10:00,73.7,35.7,29.65,NNW,334,11.0,24.0,25,0.00,,---,0.00,554.00,VWS V14.01,2013-04-06 21:10:00,
2013-04-06 16:15:00,74.0,36.0,29.65,NNW,340,12.0,24.0,25,0.00,,---,0.00,629.00,VWS V14.01,2013-04-06 21:15:00,
2013-04-06 16:20:00,73.9,36.9,29.65,NW,319,12.0,24.0,26,0.00,,---,0.00,404.00,VWS V14.01,2013-04-06 21:20:00,
2013-04-06 16:25:00,74.0,37.0,29.65,NW,324,24.0,24.0,26,0.00,,---,0.00,621.00,VWS V14.01,2013-04-06 21:25:00,
2013-04-06 16:30:00,73.7,36.7,29.65,NW,319,11.0,11.0,26,0.00,,---,0.00,381.00,VWS V14.01,2013-04-06 21:30:00,
2013-04-06 16:35:00,73.9,36.9,29.65,NW,306,16.0,21.0,26,0.00,,---,0.00,501.00,VWS V14.01,2013-04-06 21:35:00,
2013-04-06 16:40:00,74.2,37.1,29.65,NW,304,11.0,21.0,26,0.00,,---,0.00,466.00,VWS V14.01,2013-04-06 21:40:00,
2013-04-06 16:45:00,73.9,36.9,29.65,NW,324,13.0,23.0,26,0.00,,---,0.00,499.00,VWS V14.01,2013-04-06 21:45:00,
2013-04-06 16:50:00,73.9,35.9,29.65,NNW,340,9.0,24.0,25,0.00,,---,0.00,417.00,VWS V14.01,2013-04-06 21:50:00,
2013-04-06 16:55:00,73.7,37.7,29.65,NW,313,11.0,24.0,27,0.00,,---,0.00,318.00,VWS V14.01,2013-04-06 21:55:00,
2013-04-06 17:00:00,73.2,37.2,29.66,WNW,297,17.0,17.0,27,0.00,,---,0.00,237.00,VWS V14.01,2013-04-06 22:00:00,
2013-04-06 17:05:00,73.2,37.2,29.66,NW,308,18.0,21.0,27,0.00,,---,0.00,457.00,VWS V14.01,2013-04-06 22:05:00,
2013-04-06 17:10:00,73.3,37.3,29.66,NW,314,8.0,26.0,27,0.00,,---,0.00,548.00,VWS V14.01,2013-04-06 22:10:00,
2013-04-06 17:15:00,73.7,36.7,29.66,WNW,285,11.0,26.0,26,0.00,,---,0.00,492.00,VWS V14.01,2013-04-06 22:15:00,
2013-04-06 17:20:00,73.9,36.9,29.67,NW,324,17.0,26.0,26,0.00,,---,0.00,482.00,VWS V14.01,2013-04-06 22:20:00,
2013-04-06 17:25:00,73.5,37.5,29.67,NW,317,9.0,26.0,27,0.00,,---,0.00,434.00,VWS V14.01,2013-04-06 22:25:00,
2013-04-06 17:30:00,73.0,37.1,29.67,NW,309,15.0,20.0,27,0.00,,---,0.00,207.00,VWS V14.01,2013-04-06 22:30:00,
2013-04-06 17:35:00,73.0,37.1,29.68,NNW,342,6.0,20.0,27,0.00,,---,0.00,383.00,VWS V14.01,2013-04-06 22:35:00,
2013-04-06 17:40:00,73.0,37.1,29.68,WNW,301,7.0,20.0,27,0.00,,---,0.00,306.00,VWS V14.01,2013-04-06 22:40:00,
2013-04-06 17:45:00,73.0,37.1,29.68,WNW,293,17.0,20.0,27,0.00,,---,0.00,276.00,VWS V14.01,2013-04-06 22:45:00,
2013-04-06 17:50:00,72.8,36.9,29.68,NNW,335,8.0,20.0,27,0.00,,---,0.00,450.00,VWS V14.01,2013-04-06 22:50:00,
2013-04-06 17:55:00,73.3,38.3,29.68,NNW,344,18.0,20.0,28,0.00,,---,0.00,350.00,VWS V14.01,2013-04-06 22:55:00,
2013-04-06 18:00:00,72.8,36.9,29.68,NW,318,10.0,20.0,27,0.00,,---,0.00,148.00,VWS V14.01,2013-04-06 23:00:00,
2013-04-06 18:01:00,72.8,37.8,29.68,NNW,340,7.0,10.0,28,0.00,,---,0.00,148.00,VWS V14.01,2013-04-06 23:01:00,
2013-04-06 18:06:00,72.1,37.2,29.68,NNW,327,10.0,17.0,28,0.00,,---,0.00,125.00,VWS V14.01,2013-04-06 23:06:00,
2013-04-06 18:11:00,72.0,37.1,29.69,NNW,343,7.0,17.0,28,0.00,,---,0.00,162.00,VWS V14.01,2013-04-06 23:11:00,
2013-04-06 18:16:00,72.1,38.1,29.69,NW,323,10.0,17.0,29,0.00,,---,0.00,352.00,VWS V14.01,2013-04-06 23:16:00,
2013-04-06 18:21:00,72.3,37.4,29.69,North,355,11.0,17.0,28,0.00,,---,0.00,360.00,VWS V14.01,2013-04-06 23:21:00,
2013-04-06 18:26:00,72.5,37.6,29.69,NNW,327,9.0,17.0,28,0.00,,---,0.00,341.00,VWS V14.01,2013-04-06 23:26:00,
2013-04-06 18:30:00,72.7,37.7,29.69,WNW,291,9.0,18.0,28,0.00,,---,0.00,315.00,VWS V14.01,2013-04-06 23:30:00,
2013-04-06 18:31:00,72.5,37.6,29.69,NW,313,5.0,13.0,28,0.00,,---,0.00,304.00,VWS V14.01,2013-04-06 23:31:00,
2013-04-06 18:36:00,72.1,38.1,29.69,NNW,348,14.0,19.0,29,0.00,,---,0.00,221.00,VWS V14.01,2013-04-06 23:36:00,
2013-04-06 18:41:00,72.0,38.9,29.69,NNW,342,12.0,19.0,30,0.00,,---,0.00,216.00,VWS V14.01,2013-04-06 23:41:00,
2013-04-06 18:47:00,71.8,37.0,29.69,NW,320,5.0,19.0,28,0.00,,---,0.00,239.00,VWS V14.01,2013-04-06 23:47:00,
2013-04-06 18:52:00,71.6,37.7,29.69,NNW,331,15.0,19.0,29,0.00,,---,0.00,163.00,VWS V14.01,2013-04-06 23:52:00,
2013-04-06 18:57:00,71.5,37.6,29.70,North,350,12.0,19.0,29,0.00,,---,0.00,104.00,VWS V14.01,2013-04-06 23:57:00,
2013-04-06 19:00:00,71.3,38.3,29.69,NNW,346,7.0,19.0,30,0.00,,---,0.00,76.00,VWS V14.01,2013-04-07 00:00:00,
2013-04-06 19:02:00,71.1,38.1,29.70,NNW,344,11.0,14.0,30,0.00,,---,0.00,81.00,VWS V14.01,2013-04-07 00:02:00,
2013-04-06 19:07:00,70.9,38.0,29.70,NNW,337,11.0,14.0,30,0.00,,---,0.00,121.00,VWS V14.01,2013-04-07 00:07:00,
2013-04-06 19:12:00,70.8,37.9,29.70,North,355,13.0,15.0,30,0.00,,---,0.00,97.00,VWS V14.01,2013-04-07 00:12:00,
2013-04-06 19:17:00,70.6,38.5,29.71,NNW,339,12.0,16.0,31,0.00,,---,0.00,49.00,VWS V14.01,2013-04-07 00:17:00,
2013-04-06 19:22:00,70.3,39.1,29.70,NNW,346,5.0,16.0,32,0.00,,---,0.00,125.00,VWS V14.01,2013-04-07 00:22:00,
2013-04-06 19:27:00,70.1,38.9,29.71,NW,312,4.0,16.0,32,0.00,,---,0.00,109.00,VWS V14.01,2013-04-07 00:27:00,
2013-04-06 19:30:00,70.1,38.9,29.71,North,355,3.0,16.0,32,0.00,,---,0.00,65.00,VWS V14.01,2013-04-07 00:30:00,
2013-04-06 19:32:00,70.1,38.9,29.71,NNW,346,10.0,14.0,32,0.00,,---,0.00,56.00,VWS V14.01,2013-04-07 00:32:00,
2013-04-06 19:37:00,69.8,38.6,29.71,North,360,9.0,14.0,32,0.00,,---,0.00,39.00,VWS V14.01,2013-04-07 00:37:00,
2013-04-06 19:42:00,69.6,39.2,29.71,NW,324,6.0,14.0,33,0.00,,---,0.00,26.00,VWS V14.01,2013-04-07 00:42:00,
2013-04-06 19:47:00,69.4,39.1,29.71,NNE,26,6.0,14.0,33,0.00,,---,0.00,19.00,VWS V14.01,2013-04-07 00:47:00,
2013-04-06 19:52:00,69.1,39.6,29.71,NNW,338,8.0,14.0,34,0.00,,---,0.00,14.00,VWS V14.01,2013-04-07 00:52:00,
2013-04-06 19:57:00,68.9,39.4,29.71,NNW,347,5.0,14.0,34,0.00,,---,0.00,11.00,VWS V14.01,2013-04-07 00:57:00,
2013-04-06 20:00:00,68.8,39.3,29.71,NNW,337,5.0,14.0,34,0.00,,---,0.00,9.00,VWS V14.01,2013-04-07 01:00:00,
2013-04-06 20:02:00,68.8,39.3,29.71,North,5,6.0,9.0,34,0.00,,---,0.00,5.00,VWS V14.01,2013-04-07 01:02:00,
2013-04-06 20:07:00,68.6,39.1,29.71,North,349,2.0,9.0,34,0.00,,---,0.00,0.00,VWS V14.01,2013-04-07 01:07:00,
2013-04-06 20:13:00,68.4,39.0,29.71,North,5,5.0,9.0,34,0.00,,---,0.00,0.00,VWS V14.01,2013-04-07 01:13:00,
2013-04-06 20:18:00,68.1,39.4,29.71,North,5,2.0,9.0,35,0.00,,---,0.00,0.00,VWS V14.01,2013-04-07 01:18:00,
2013-04-06 20:23:00,67.9,39.3,29.71,North,5,1.0,9.0,35,0.00,,---,0.00,0.00,VWS V14.01,2013-04-07 01:23:00,
2013-04-06 20:28:00,67.8,39.2,29.71,North,5,0.0,9.0,35,0.00,,---,0.00,0.00,VWS V14.01,2013-04-07 01:28:00,
2013-04-06 20:30:00,67.8,39.2,29.71,North,5,0.0,9.0,35,0.00,,---,0.00,0.00,VWS V14.01,2013-04-07 01:30:00,
2013-04-06 20:33:00,67.6,39.0,29.71,North,5,1.0,2.0,35,0.00,,---,0.00,0.00,VWS V14.01,2013-04-07 01:33:00,
2013-04-06 20:38:00,67.4,38.8,29.71,North,5,2.0,2.0,35,0.00,,---,0.00,0.00,VWS V14.01,2013-04-07 01:38:00,
2013-04-06 20:43:00,67.1,39.3,29.71,North,5,2.0,2.0,36,0.00,,---,0.00,0.00,VWS V14.01,2013-04-07 01:43:00,
2013-04-06 20:48:00,66.9,39.1,29.71,North,5,1.0,2.0,36,0.00,,---,0.00,0.00,VWS V14.01,2013-04-07 01:48:00,
2013-04-06 20:53:00,66.9,39.1,29.71,North,5,1.0,2.0,36,0.00,,---,0.00,0.00,VWS V14.01,2013-04-07 01:53:00,
2013-04-06 20:58:00,66.8,39.7,29.71,North,5,2.0,3.0,37,0.00,,---,0.00,0.00,VWS V14.01,2013-04-07 01:58:00,
2013-04-06 21:00:00,66.8,39.7,29.72,North,5,2.0,3.0,37,0.00,,---,0.00,0.00,VWS V14.01,2013-04-07 02:00:00,
2013-04-06 21:03:00,66.6,39.5,29.72,North,5,2.0,3.0,37,0.00,,---,0.00,0.00,VWS V14.01,2013-04-07 02:03:00,
2013-04-06 21:08:00,66.4,39.4,29.72,North,5,3.0,3.0,37,0.00,,---,0.00,0.00,VWS V14.01,2013-04-07 02:08:00,
2013-04-06 21:13:00,66.3,40.0,29.72,NNE,25,3.0,4.0,38,0.00,,---,0.00,0.00,VWS V14.01,2013-04-07 02:13:00,
2013-04-06 21:18:00,66.0,39.7,29.72,NNE,30,4.0,4.0,38,0.00,,---,0.00,0.00,VWS V14.01,2013-04-07 02:18:00,
2013-04-06 21:23:00,65.6,39.3,29.72,NNE,30,3.0,4.0,38,0.00,,---,0.00,0.00,VWS V14.01,2013-04-07 02:23:00,
2013-04-06 21:28:00,65.3,39.7,29.72,NNE,30,1.0,4.0,39,0.00,,---,0.00,0.00,VWS V14.01,2013-04-07 02:28:00,
2013-04-06 21:30:00,65.2,39.6,29.72,NNE,30,3.0,4.0,39,0.00,,---,0.00,0.00,VWS V14.01,2013-04-07 02:30:00,
2013-04-06 21:33:00,65.0,40.1,29.73,NNE,30,3.0,3.0,40,0.00,,---,0.00,0.00,VWS V14.01,2013-04-07 02:33:00,
2013-04-06 21:38:00,64.5,39.7,29.73,NNE,30,2.0,3.0,40,0.00,,---,0.00,0.00,VWS V14.01,2013-04-07 02:38:00,
2013-04-06 21:43:00,64.2,40.0,29.73,NNE,30,1.0,3.0,41,0.00,,---,0.00,0.00,VWS V14.01,2013-04-07 02:43:00,
2013-04-06 21:48:00,64.0,39.2,29.73,NNE,30,2.0,3.0,40,0.00,,---,0.00,0.00,VWS V14.01,2013-04-07 02:48:00,
2013-04-06 21:53:00,63.7,40.2,29.73,NE,49,3.0,3.0,42,0.00,,---,0.00,0.00,VWS V14.01,2013-04-07 02:53:00,
2013-04-06 21:58:00,63.2,40.3,29.73,ENE,76,3.0,4.0,43,0.00,,---,0.00,0.00,VWS V14.01,2013-04-07 02:58:00,
2013-04-06 22:00:00,63.1,40.3,29.73,East,87,3.0,4.0,43,0.00,,---,0.00,0.00,VWS V14.01,2013-04-07 03:00:00,
2013-04-06 22:03:00,62.9,40.1,29.73,ESE,113,4.0,5.0,43,0.00,,---,0.00,0.00,VWS V14.01,2013-04-07 03:03:00,
2013-04-06 22:08:00,62.9,40.1,29.73,ESE,115,4.0,5.0,43,0.00,,---,0.00,0.00,VWS V14.01,2013-04-07 03:08:00,
2013-04-06 22:13:00,62.6,40.4,29.73,ESE,117,4.0,5.0,44,0.00,,---,0.00,0.00,VWS V14.01,2013-04-07 03:13:00,
2013-04-06 22:18:00,62.0,40.4,29.73,SE,134,5.0,6.0,45,0.00,,---,0.00,0.00,VWS V14.01,2013-04-07 03:18:00,
2013-04-06 22:23:00,61.3,40.4,29.74,SSE,148,4.0,6.0,46,0.00,,---,0.00,0.00,VWS V14.01,2013-04-07 03:23:00,
2013-04-06 22:28:00,60.9,40.0,29.74,SSE,149,4.0,6.0,46,0.00,,---,0.00,0.00,VWS V14.01,2013-04-07 03:28:00,
2013-04-06 22:30:00,60.9,40.6,29.74,SSE,150,5.0,6.0,47,0.00,,---,0.00,0.00,VWS V14.01,2013-04-07 03:30:00,
2013-04-06 22:33:00,60.5,40.2,29.74,SSE,162,6.0,6.0,47,0.00,,---,0.00,0.00,VWS V14.01,2013-04-07 03:33:00,
2013-04-06 22:38:00,60.4,40.1,29.74,SSE,165,5.0,6.0,47,0.00,,---,0.00,0.00,VWS V14.01,2013-04-07 03:38:00,
2013-04-06 22:43:00,60.2,40.5,29.74,SSE,165,2.0,6.0,48,0.00,,---,0.00,0.00,VWS V14.01,2013-04-07 03:43:00,
2013-04-06 22:48:00,59.8,40.1,29.74,SSE,165,4.0,6.0,48,0.00,,---,0.00,0.00,VWS V14.01,2013-04-07 03:48:00,
2013-04-06 22:53:00,59.5,40.3,29.74,SSE,165,6.0,6.0,49,0.00,,---,0.00,0.00,VWS V14.01,2013-04-07 03:53:00,
2013-04-06 22:58:00,59.2,40.6,29.74,SSE,166,6.0,6.0,50,0.00,,---,0.00,0.00,VWS V14.01,2013-04-07 03:58:00,
2013-04-06 23:00:00,59.2,40.6,29.74,SSE,166,4.0,7.0,50,0.00,,---,0.00,0.00,VWS V14.01,2013-04-07 04:00:00,
2013-04-06 23:01:00,59.0,40.4,29.74,SSE,167,4.0,5.0,50,0.00,,---,0.00,0.00,VWS V14.01,2013-04-07 04:01:00,
2013-04-06 23:06:00,58.7,40.6,29.74,SSE,166,4.0,6.0,51,0.00,,---,0.00,0.00,VWS V14.01,2013-04-07 04:06:00,
2013-04-06 23:11:00,58.6,40.5,29.74,SSE,167,5.0,6.0,51,0.00,,---,0.00,0.00,VWS V14.01,2013-04-07 04:11:00,
2013-04-06 23:16:00,58.4,40.9,29.74,South,186,5.0,7.0,52,0.00,,---,0.00,0.00,VWS V14.01,2013-04-07 04:16:00,
2013-04-06 23:21:00,58.3,40.8,29.74,SSW,193,4.0,7.0,52,0.00,,---,0.00,0.00,VWS V14.01,2013-04-07 04:21:00,
2013-04-06 23:27:00,58.0,41.0,29.74,South,187,4.0,8.0,53,0.00,,---,0.00,0.00,VWS V14.01,2013-04-07 04:27:00,
2013-04-06 23:30:00,57.6,40.6,29.74,SSW,198,7.0,8.0,53,0.00,,---,0.00,0.00,VWS V14.01,2013-04-07 04:30:00,
2013-04-06 23:32:00,57.3,40.8,29.74,South,189,7.0,8.0,54,0.00,,---,0.00,0.00,VWS V14.01,2013-04-07 04:32:00,
2013-04-06 23:37:00,57.2,40.7,29.74,SSW,196,5.0,9.0,54,0.00,,---,0.00,0.00,VWS V14.01,2013-04-07 04:37:00,
2013-04-06 23:42:00,56.9,40.9,29.74,SSW,200,6.0,9.0,55,0.00,,---,0.00,0.00,VWS V14.01,2013-04-07 04:42:00,
2013-04-06 23:47:00,56.7,40.7,29.74,South,186,4.0,9.0,55,0.00,,---,0.00,0.00,VWS V14.01,2013-04-07 04:47:00,
2013-04-06 23:52:00,56.6,40.6,29.74,South,185,5.0,9.0,55,0.00,,---,0.00,0.00,VWS V14.01,2013-04-07 04:52:00,
2013-04-06 23:57:00,56.3,40.8,29.74,South,185,3.0,9.0,56,0.00,,---,0.00,0.00,VWS V14.01,2013-04-07 04:57:00,